K9JVA Weather Reports


time (UTC)temp
C
wind
direction
speed
KPH
gust
KPH
rain 1hr
cm
rain 24hr
cm
rain mn
cm
humidity
%
barometer
mb
20260503190109 19 0.0 0.0 0.00 0.00 0.00 42 1015.9
20260503185608 18 0.0 0.0 0.00 0.00 0.00 40 1015.9
20260503185009 18 0.0 0.0 0.00 0.00 0.00 41 1016.0
20260503184508 18 0.0 0.0 0.00 0.00 0.00 41 1016.5
20260503184008 18 0.0 0.0 0.00 0.00 0.00 41 1016.5
20260503183508 18 0.0 0.0 0.00 0.00 0.00 42 1016.5
20260503183008 18 0.0 0.0 0.00 0.00 0.00 43 1016.5
20260503182508 18 0.0 0.0 0.00 0.00 0.00 41 1016.6
20260503182008 18 0.0 0.0 0.00 0.00 0.00 40 1016.7
20260503181733 18 0.0 0.0 0.00 0.00 0.00 40 1016.7
20260503181008 18 0.0 0.0 0.00 0.00 0.00 38 1016.7
20260503180508 18 0.0 0.0 0.00 0.00 0.00 40 1016.8
20260503175909 18 0.0 0.0 0.00 0.00 0.00 41 1016.9
20260503175309 18 0.0 0.0 0.00 0.00 0.00 40 1017.0
20260503174809 18 0.0 0.0 0.00 0.00 0.00 40 1017.0
20260503174309 18 0.0 0.0 0.00 0.00 0.00 41 1017.2
20260503173809 18 0.0 0.0 0.00 0.00 0.00 38 1017.3
20260503173309 19 0.0 0.0 0.00 0.00 0.00 38 1017.3
20260503173038 18 0.0 0.0 0.00 0.00 0.00 40 1017.3
20260503172309 18 0.0 0.0 0.00 0.00 0.00 44 1017.5
20260503172032 18 0.0 0.0 0.00 0.00 0.00 43 1017.8
20260503171309 18 0.0 0.0 0.00 0.00 0.00 44 1017.8
20260503170710 18 0.0 0.0 0.00 0.00 0.00 40 1018.0
20260503170439 18 0.0 0.0 0.00 0.00 0.00 42 1017.9
20260503150533 15 0.0 0.0 0.00 0.00 0.00 48 1019.3
20260503140115 12 0.0 0.0 0.00 0.00 0.00 55 1019.4
20260503131016 9 0.0 0.0 0.00 0.00 0.00 65 1019.6
20260503130514 8 0.0 0.0 0.00 0.00 0.00 65 1019.6
20260503120137 4 0.0 0.0 0.00 0.00 0.00 81 1019.5
20260503110716 0 0.0 0.0 0.00 0.00 0.00 91 1019.0
20260503110118 0 0.0 0.0 0.00 0.00 0.00 90 1019.0
20260503081620 0 0.0 0.0 0.00 0.00 0.00 90 1018.3
20260503081121 0 0.0 0.0 0.00 0.00 0.00 90 1018.3
20260503080620 0 0.0 0.0 0.00 0.00 0.00 90 1018.3
20260503080120 0 0.0 0.0 0.00 0.00 0.00 90 1018.3
20260503080106 0 0.0 0.0 0.00 0.00 0.00 90 1018.3
20260503072736 0 0.0 0.0 0.00 0.00 0.00 89 1018.2
20260503072021 0 0.0 0.0 0.00 0.00 0.00 88 1018.2
20260503071523 0 0.0 0.0 0.00 0.00 0.00 88 1018.2
20260503071021 0 0.0 0.0 0.00 0.00 0.00 88 1018.2
20260503070741 0 0.0 0.0 0.00 0.00 0.00 88 1018.3
20260503054924 1 0.0 0.0 0.00 0.00 0.00 86 1018.5
20260503054323 1 0.0 0.0 0.00 0.00 0.00 86 1018.5
20260503053722 1 0.0 0.0 0.00 0.00 0.00 86 1018.5
20260503053222 1 0.0 0.0 0.00 0.00 0.00 86 1018.5
20260503052723 1 0.0 0.0 0.00 0.00 0.00 86 1018.6
20260503052450 1 0.0 0.0 0.00 0.00 0.00 84 1018.5
20260503051723 1 0.0 0.0 0.00 0.00 0.00 84 1018.6
20260503051223 1 0.0 0.0 0.00 0.00 0.00 84 1018.5
20260503050943 1 0.0 0.0 0.00 0.00 0.00 84 1018.6
20260503050225 1 0.0 0.0 0.00 0.00 0.00 83 1018.6
20260503045723 1 0.0 0.0 0.00 0.00 0.00 83 1018.6
20260503045226 1 0.0 0.0 0.00 0.00 0.00 83 1018.6
20260503044624 1 0.0 0.0 0.00 0.00 0.00 83 1018.5
20260503044124 1 0.0 0.0 0.00 0.00 0.00 83 1018.6
20260503043624 2 0.0 0.0 0.00 0.00 0.00 83 1018.6
20260503043126 2 0.0 0.0 0.00 0.00 0.00 83 1018.5
20260503042624 2 0.0 0.0 0.00 0.00 0.00 82 1018.6
20260503042125 2 0.0 0.0 0.00 0.00 0.00 82 1018.5
20260503041624 2 0.0 0.0 0.00 0.00 0.00 82 1018.5
20260503041124 2 0.0 0.0 0.00 0.00 0.00 82 1018.5
20260503040625 2 0.0 0.0 0.00 0.00 0.00 81 1018.5
20260503040617 2 0.0 0.0 0.00 0.00 0.00 81 1018.6
20260503035626 2 0.0 0.0 0.00 0.00 0.00 81 1018.6
20260503035025 2 0.0 0.0 0.00 0.00 0.00 81 1018.6
20260503034525 2 0.0 0.0 0.00 0.00 0.00 80 1018.6
20260503034246 2 0.0 0.0 0.00 0.00 0.00 78 1018.6
20260503033525 2 0.0 0.0 0.00 0.00 0.00 77 1018.6
20260503033025 2 0.0 0.0 0.00 0.00 0.00 77 1018.5
20260503032751 3 0.0 0.0 0.00 0.00 0.00 76 1018.5
20260503032025 3 0.0 0.0 0.00 0.00 0.00 76 1018.5
20260503031747 3 0.0 0.0 0.00 0.00 0.00 76 1018.6
20260503031026 3 0.0 0.0 0.00 0.00 0.00 75 1018.5
20260503030526 3 0.0 0.0 0.00 0.00 0.00 76 1018.5
20260503025426 3 0.0 0.0 0.00 0.00 0.00 74 1018.5
20260503024926 3 0.0 0.0 0.00 0.00 0.00 74 1018.5
20260503024426 3 0.0 0.0 0.00 0.00 0.00 74 1018.5
20260503023926 3 0.0 0.0 0.00 0.00 0.00 73 1018.5
20260503023426 4 0.0 0.0 0.00 0.00 0.00 71 1018.5
20260503022927 4 0.0 0.0 0.00 0.00 0.00 70 1018.4
20260503022426 4 0.0 0.0 0.00 0.00 0.00 70 1018.4
20260503021926 5 0.0 0.0 0.00 0.00 0.00 70 1018.4
20260503021428 5 0.0 0.0 0.00 0.00 0.00 69 1018.3
20260503020925 5 0.0 0.0 0.00 0.00 0.00 68 1018.3
20260503020427 5 0.0 0.0 0.00 0.00 0.00 68 1018.2
20260503015826 5 0.0 0.0 0.00 0.00 0.00 67 1018.2
20260503015326 5 0.0 0.0 0.00 0.00 0.00 67 1018.1
20260503014826 6 0.0 0.0 0.00 0.00 0.00 66 1018.1
20260503014327 6 0.0 0.0 0.00 0.00 0.00 64 1018.0
20260503013827 6 0.0 0.0 0.00 0.00 0.00 63 1018.0
20260503013548 6 0.0 0.0 0.00 0.00 0.00 63 1017.9
20260503012827 6 0.0 0.0 0.00 0.00 0.00 62 1017.9
20260503012556 6 0.0 0.0 0.00 0.00 0.00 61 1017.8
20260503011728 7 0.0 0.0 0.00 0.00 0.00 60 1017.7
20260503011451 7 0.0 0.0 0.00 0.00 0.00 60 1017.6
20260503010727 7 0.0 0.0 0.00 0.00 0.00 59 1017.5
20260503010227 7 0.0 0.0 0.00 0.00 0.00 59 1017.5
20260503005728 7 0.0 0.0 0.00 0.00 0.00 59 1017.5
20260503005227 7 0.0 0.0 0.00 0.00 0.00 57 1017.4
20260503004730 8 0.0 0.0 0.00 0.00 0.00 57 1017.4
20260503004228 8 0.0 0.0 0.00 0.00 0.00 56 1017.3
20260503003728 8 0.0 0.0 0.00 0.00 0.00 57 1017.3
20260503003228 8 0.0 0.0 0.00 0.00 0.00 56 1017.3
20260503002630 8 0.0 0.0 0.00 0.00 0.00 56 1017.2
20260503002030 8 0.0 0.0 0.00 0.00 0.00 55 1017.1
20260503001429 9 0.0 0.0 0.00 0.00 0.00 55 1017.0
20260503000930 9 0.0 0.0 0.00 0.00 0.00 54 1017.0
20260503000430 9 0.0 0.0 0.00 0.00 0.00 53 1016.9
20260502235928 10 0.0 0.0 0.00 0.00 0.00 53 1016.9
20260502235430 10 0.0 0.0 0.00 0.00 0.00 53 1016.9
20260502234929 10 0.0 0.0 0.00 0.00 0.00 53 1016.9
20260502234701 10 0.0 0.0 0.00 0.00 0.00 51 1016.9
20260502233929 10 0.0 0.0 0.00 0.00 0.00 50 1016.8
20260502233554 11 0.0 0.0 0.00 0.00 0.00 50 1016.8
20260502232830 11 0.0 0.0 0.00 0.00 0.00 51 1016.7
20260502232231 11 0.0 0.0 0.00 0.00 0.00 50 1016.7
20260502231730 11 0.0 0.0 0.00 0.00 0.00 50 1016.6
20260502231230 11 0.0 0.0 0.00 0.00 0.00 50 1016.7
20260502230957 11 0.0 0.0 0.00 0.00 0.00 50 1016.7
20260502230448 11 0.0 0.0 0.00 0.00 0.00 49 1016.7
20260502225730 11 0.0 0.0 0.00 0.00 0.00 49 1016.6
20260502225232 11 0.0 0.0 0.00 0.00 0.00 48 1016.6
20260502224730 11 0.0 0.0 0.00 0.00 0.00 48 1016.6
20260502224232 12 0.0 0.0 0.00 0.00 0.00 49 1016.6
20260502223630 12 0.0 0.0 0.00 0.00 0.00 48 1016.5
20260502223130 12 0.0 0.0 0.00 0.00 0.00 49 1016.5
20260502222631 12 0.0 0.0 0.00 0.00 0.00 49 1016.5
20260502222132 11 0.0 0.0 0.00 0.00 0.00 48 1016.5
20260502221632 12 0.0 0.0 0.00 0.00 0.00 48 1016.4
20260502221351 12 0.0 0.0 0.00 0.00 0.00 46 1016.4
20260502221113 12 0.0 0.0 0.00 0.00 0.00 48 1016.4
20260502220131 12 0.0 0.0 0.00 0.00 0.00 49 1016.4
20260502215854 12 0.0 0.0 0.00 0.00 0.00 49 1016.4
20260502215133 12 0.0 0.0 0.00 0.00 0.00 47 1016.3
20260502214531 12 0.0 0.0 0.00 0.00 0.00 48 1016.3
20260502214031 12 0.0 0.0 0.00 0.00 0.00 46 1016.3
20260502213532 12 0.0 0.0 0.00 0.00 0.00 48 1016.1
20260502213033 12 0.0 0.0 0.00 0.00 0.00 46 1016.1
20260502212533 13 0.0 0.0 0.00 0.00 0.00 46 1016.1
20260502212034 13 0.0 0.0 0.00 0.00 0.00 44 1016.1
20260502211532 13 0.0 0.0 0.00 0.00 0.00 47 1016.3
20260502211033 13 0.0 0.0 0.00 0.00 0.00 44 1016.1
20260502210534 13 0.0 0.0 0.00 0.00 0.00 46 1015.9
20260502205935 13 0.0 0.0 0.00 0.00 0.00 46 1016.1
20260502205333 13 0.0 0.0 0.00 0.00 0.00 44 1016.0
20260502204835 14 0.0 0.0 0.00 0.00 0.00 44 1016.1
20260502204332 14 0.0 0.0 0.00 0.00 0.00 43 1016.0
20260502203834 15 0.0 0.0 0.00 0.00 0.00 43 1016.0
20260502203335 14 0.0 0.0 0.00 0.00 0.00 43 1016.1
20260502202833 15 0.0 0.0 0.00 0.00 0.00 43 1016.1
20260502202334 14 0.0 0.0 0.00 0.00 0.00 43 1016.1
20260502201833 15 0.0 0.0 0.00 0.00 0.00 43 1016.3
20260502201334 13 0.0 0.0 0.00 0.00 0.00 46 1016.3
20260502200834 13 0.0 0.0 0.00 0.00 0.00 44 1016.3
20260502200234 15 0.0 0.0 0.00 0.00 0.00 43 1016.3
20260502195734 15 0.0 0.0 0.00 0.00 0.00 43 1016.4
20260502195235 15 0.0 0.0 0.00 0.00 0.00 43 1016.4
20260502194734 16 0.0 0.0 0.00 0.00 0.00 40 1016.5
20260502194234 15 0.0 0.0 0.00 0.00 0.00 42 1016.5
20260502193734 15 0.0 0.0 0.00 0.00 0.00 42 1016.5
20260502193235 15 0.0 0.0 0.00 0.00 0.00 46 1016.5
20260502192735 14 0.0 0.0 0.00 0.00 0.00 44 1016.7
20260502192458 14 0.0 0.0 0.00 0.00 0.00 46 1016.6
20260502191734 14 0.0 0.0 0.00 0.00 0.00 44 1016.7
20260502191136 13 0.0 0.0 0.00 0.00 0.00 46 1016.8
20260502190634 13 0.0 0.0 0.00 0.00 0.00 46 1016.8